Location: Sungai Laei
(2.6000°N, 113.7167°E)
Time: 13:56:03
(UTC+00:00)

YAOGAN 6 - Pass Details

Date: 22 May 2022
Orbit: 460 x 493 km, 97.1° (Epoch: 07 July)

Event Time Altitude Azimuth Distance (km) Brightness Sun altitude
Rises 20:20:04 0° 20° (NNE) 2,546 6.8 -27.3°
Reaches altitude 10° 20:22:10 10° 27° (NNE) 1,672 5.9 -26.8°
Enters shadow 20:25:11 43° 77° (ENE) 703 3.7 -26.1°
